Location: Fours
(44.3167°N, 6.7000°E)
Time: 00:46:59
(UTC+00:00)

Cosmos 1544 Rocket - Pass Details

Date: 16 October 2021
Orbit: 603 x 632 km, 82.5° (Epoch: 02 December)

Event Time Altitude Azimuth Distance (km) Brightness Sun altitude
Rises 18:19:47 0° 175° (S) 2,903 6.9 -17.3°
Reaches altitude 10° 18:22:03 10° 170° (S) 2,003 6.0 -17.7°
Maximum altitude 18:26:22 53° 94° (E) 778 3.6 -18.5°
Drops below altitude 10° 18:30:44 10° 18° (NNE) 2,023 6.1 -19.3°
Sets 18:33:01 0° 14° (NNE) 2,936 7.0 -19.7°
